Tracking 23731 objects as of 26-Sep-2021
HD Live streaming from Space Station
objects crossing your sky now

YUNHAI 2 1

Track YUNHAI 2 1 now!
10-day predictions


NORAD ID: 43909
Int'l Code: 2018-112A
Perigee: 806.5 km
Apogee: 806.7 km
Inclination: 50.0 °
Period: 100.9 minutes
Semi major axis: 7177 km
RCS: Unknown
Launch date: December 29, 2018
Source: People's Republic of China (PRC)
Launch site: Jiuquan Satellite Launch Center, China (JSC)
aabbcc
Your satellite tracking list
Your tracking list is empty




NASA's NSSDC Master Catalog

Two Line Element Set (TLE):
1 43909U 18112A   21269.06829914 -.00000104  00000-0  22920-4 0  9992
2 43909  50.0108 158.1703 0000136 334.4598  25.6322 14.27700801144562
Source of the keplerian elements: AFSPC